Location: Byszew
(52.1813°N, 19.2693°E)
Time: 20:10:13
(UTC+00:00)

AIST 2D - Pass Details

Date: 03 July 2022
Orbit: 433 x 444 km, 97.0° (Epoch: 07 August)

Event Time Altitude Azimuth Distance (km) Brightness Sun altitude
Rises 20:59:31 0° 7° (N) 2,429 ? -11.3°
Reaches altitude 10° 21:01:37 10° 359° (N) 1,557 ? -11.4°
Maximum altitude 21:04:45 38° 290° (WNW) 681 ? -11.6°
Drops below altitude 10° 21:07:51 10° 220° (SW) 1,548 ? -11.8°
Enters shadow 21:08:59 - 215° (SW) 2,012 ? -11.9°
